Date String (YYYY-MM-DD hh:mm:ss) UTC,Instrument flags,absolute air pressure of the measurement (hPa),sample flow rate (lpm),inlet stack bypass flow (lpm),air temperature of the measurement (°C),ambient temperature measured by the external sensor (°C),aerosol sample conditioner tube jacket temperature (°C),OPC LED temperature (°C),internal box temperature (°C),relative humidity of the measurement (%),span deviation,mass concentration of particles derived from Lorenz-Mie calculation of OPC scattering (μg/m³),mass concentration of particles derived from Lorenz-Mie calculation of OPC scattering (μg/m³),mass concentration of particles derived from Lorenz-Mie calculation of OPC scattering (μg/m³)
DateTimeUTC,F1_M11,P_M11,Q1_M11,Q2_M11,T1_M11,T2_M11,T3_M11,T4_M11,T5_M11,U1_M11,ZSPAN_M11,X0_M11,X2_M11,X1_M11
2023-07-13 04:00:00,SystemResetWarning,0831.2,5.00,000.00,028.8,027.0,000.0,037.2,030.4,25.6,0000.0,0010.30,0003.56,0003.12
2023-07-13 04:01:00,SystemResetWarning,0831.2,5.00,000.00,028.8,027.3,000.0,037.2,030.5,25.3,0000.0,0010.57,0003.59,0003.14
2023-07-13 04:02:00,SystemResetWarning,0831.3,5.00,000.00,028.9,027.5,000.0,037.2,030.6,25.3,0000.0,0010.38,0003.58,0003.14
2023-07-13 04:03:00,SystemResetWarning,0831.3,4.99,000.00,028.9,027.7,000.0,037.2,030.7,25.3,0000.0,0010.33,0003.61,0003.14
2023-07-13 04:04:00,SystemResetWarning,0831.3,4.99,000.00,029.0,027.9,000.0,037.3,030.7,25.3,0000.0,0010.31,0003.61,0003.13
2023-07-13 04:05:00,SystemResetWarning,0831.3,5.00,000.00,029.0,027.8,000.0,037.3,030.8,24.1,0000.0,0010.21,0003.60,0003.12
2023-07-13 04:06:00,SystemResetWarning,0831.3,5.00,000.00,029.0,026.1,000.0,037.2,030.5,23.7,0000.0,0009.47,0003.63,0003.13
2023-07-13 04:07:00,SystemResetWarning,0831.3,5.00,000.00,028.9,024.7,000.0,037.1,030.2,23.8,0000.0,0009.74,0003.65,0003.14
2023-07-13 04:08:00,SystemResetWarning,0831.3,5.01,000.00,028.8,024.6,000.0,037.0,030.1,23.9,0000.0,0009.13,0003.65,0003.13
2023-07-13 04:09:00,SystemResetWarning,0831.3,5.01,000.00,028.7,025.0,000.0,037.0,030.0,24.6,0000.0,0008.96,0003.67,0003.14
2023-07-13 04:10:00,SystemResetWarning,0831.2,5.00,000.00,028.7,025.4,000.0,037.1,030.1,25.0,0000.0,0009.38,0003.67,0003.13
2023-07-13 04:11:00,SystemResetWarning,0831.2,5.00,000.00,028.7,025.9,000.0,037.1,030.2,25.3,0000.0,0009.00,0003.67,0003.12
2023-07-13 04:12:00,SystemResetWarning,0831.2,4.99,000.00,028.7,026.4,000.0,037.2,030.3,25.6,0000.0,0008.90,0003.70,0003.13
2023-07-13 04:13:00,SystemResetWarning,0831.2,5.00,000.00,028.7,026.7,000.0,037.2,030.4,26.1,0000.0,0008.68,0003.74,0003.14
2023-07-13 04:14:00,SystemResetWarning,0831.2,5.00,000.00,028.8,027.1,000.0,037.2,030.5,26.1,0000.0,0008.96,0003.74,0003.17
2023-07-13 04:15:00,SystemResetWarning,0831.2,5.00,000.00,028.8,027.3,000.0,037.2,030.5,26.1,0000.0,0009.27,0003.80,0003.21
2023-07-13 04:16:00,SystemResetWarning,0831.1,5.00,000.00,028.9,027.5,000.0,037.2,030.6,25.7,0000.0,0009.54,0003.84,0003.24
2023-07-13 04:17:00,SystemResetWarning,0831.1,4.98,000.00,028.9,027.7,000.0,037.3,030.7,25.0,0000.0,0009.54,0003.85,0003.26
2023-07-13 04:18:00,SystemResetWarning,0831.1,5.02,000.00,029.0,027.9,000.0,037.3,030.7,24.9,0000.0,0008.77,0003.85,0003.27
2023-07-13 04:19:00,SystemResetWarning,0831.1,5.01,000.00,029.0,028.0,000.0,037.3,030.8,24.6,0000.0,0008.80,0003.84,0003.28
2023-07-13 04:20:00,SystemResetWarning,0831.1,4.97,000.00,029.0,027.0,000.0,037.2,030.7,24.5,0000.0,0008.82,0003.84,0003.28
2023-07-13 04:21:00,SystemResetWarning,0831.1,5.02,000.00,029.0,025.7,000.0,037.2,030.5,24.7,0000.0,0008.34,0003.88,0003.29
2023-07-13 04:22:00,SystemResetWarning,0831.0,5.01,000.00,028.9,025.6,000.0,037.1,030.4,25.3,0000.0,0008.80,0003.86,0003.30
2023-07-13 04:23:00,SystemResetWarning,0830.9,5.00,000.00,028.9,025.9,000.0,037.2,030.3,25.6,0000.0,0008.78,0003.82,0003.29
2023-07-13 04:24:00,SystemResetWarning,0830.9,5.00,000.00,028.9,026.3,000.0,037.2,030.4,25.3,0000.0,0008.87,0003.82,0003.28
2023-07-13 04:25:00,SystemResetWarning,0830.9,5.00,000.00,028.9,026.7,000.0,037.3,030.5,25.3,0000.0,0009.01,0003.80,0003.26
2023-07-13 04:26:00,SystemResetWarning,0830.9,5.00,000.00,028.9,027.0,000.0,037.3,030.6,25.3,0000.0,0008.77,0003.77,0003.25
2023-07-13 04:27:00,SystemResetWarning,0830.9,5.00,000.00,029.0,027.3,000.0,037.3,030.6,25.2,0000.0,0009.06,0003.79,0003.24
2023-07-13 04:28:00,SystemResetWarning,0830.9,4.99,000.00,029.0,027.5,000.0,037.4,030.7,25.5,0000.0,0009.64,0003.78,0003.21
2023-07-13 04:29:00,SystemResetWarning,0830.9,5.00,000.00,029.0,027.7,000.0,037.4,030.8,25.6,0000.0,0009.75,0003.77,0003.20
2023-07-13 04:30:00,SystemResetWarning,0831.0,5.00,000.00,029.1,027.9,000.0,037.4,030.8,25.6,0000.0,0010.20,0003.74,0003.20
2023-07-13 04:31:00,SystemResetWarning,0830.9,4.99,000.00,029.1,027.3,000.0,037.4,030.8,25.7,0000.0,0010.17,0003.75,0003.20
2023-07-13 04:32:00,SystemResetWarning,0830.9,5.01,000.00,029.1,025.3,000.0,037.3,030.5,26.2,0000.0,0009.98,0003.72,0003.20
2023-07-13 04:33:00,SystemResetWarning,0831.0,5.01,000.00,029.0,024.5,000.0,037.2,030.3,26.6,0000.0,0009.40,0003.75,0003.20
2023-07-13 04:34:00,SystemResetWarning,0831.1,5.00,000.00,028.9,024.7,000.0,037.2,030.1,27.0,0000.0,0009.47,0003.74,0003.20
2023-07-13 04:35:00,SystemResetWarning,0831.2,5.00,000.00,028.8,025.1,000.0,037.2,030.1,27.2,0000.0,0009.55,0003.72,0003.19
2023-07-13 04:36:00,SystemResetWarning,0831.1,5.00,000.00,028.8,025.6,000.0,037.2,030.2,26.8,0000.0,0008.98,0003.72,0003.19
2023-07-13 04:37:00,SystemResetWarning,0831.2,5.00,000.00,028.8,026.1,000.0,037.2,030.3,26.7,0000.0,0009.08,0003.71,0003.18
2023-07-13 04:38:00,SystemResetWarning,0831.2,4.99,000.00,028.8,026.5,000.0,037.3,030.4,26.8,0000.0,0008.49,0003.65,0003.17
2023-07-13 04:39:00,SystemResetWarning,0831.3,5.00,000.00,028.8,026.9,000.0,037.3,030.4,26.9,0000.0,0007.85,0003.64,0003.16
2023-07-13 04:40:00,SystemResetWarning,0831.3,5.00,000.00,028.9,027.1,000.0,037.3,030.5,26.7,0000.0,0007.77,0003.65,0003.15
2023-07-13 04:41:00,SystemResetWarning,0831.3,5.00,000.00,028.9,027.4,000.0,037.3,030.6,26.3,0000.0,0007.36,0003.69,0003.15
2023-07-13 04:42:00,SystemResetWarning,0831.3,5.00,000.00,028.9,027.6,000.0,037.3,030.6,26.2,0000.0,0007.64,0003.70,0003.14
2023-07-13 04:43:00,SystemResetWarning,0831.3,5.00,000.00,029.0,027.8,000.0,037.3,030.7,26.3,0000.0,0008.10,0003.76,0003.15
2023-07-13 04:44:00,SystemResetWarning,0831.3,5.00,000.00,029.0,027.9,000.0,037.4,030.8,26.1,0000.0,0008.45,0003.75,0003.15
2023-07-13 04:45:00,SystemResetWarning,0831.3,5.00,000.00,029.1,028.1,000.0,037.4,030.8,25.6,0000.0,0008.26,0003.76,0003.16
2023-07-13 04:46:00,SystemResetWarning,0831.3,4.98,000.00,029.1,027.2,000.0,037.3,030.8,25.1,0000.0,0008.05,0003.77,0003.16
2023-07-13 04:47:00,SystemResetWarning,0831.3,5.00,000.00,029.1,025.7,000.0,037.2,030.5,24.4,0000.0,0008.08,0003.76,0003.16
2023-07-13 04:48:00,SystemResetWarning,0831.3,5.01,000.00,029.0,025.5,000.0,037.2,030.4,23.9,0000.0,0007.95,0003.75,0003.16
2023-07-13 04:49:00,SystemResetWarning,0831.3,5.00,000.00,028.9,025.8,000.0,037.2,030.3,24.1,0000.0,0007.99,0003.76,0003.16
2023-07-13 04:50:00,SystemResetWarning,0831.4,5.00,000.00,028.9,026.2,000.0,037.3,030.4,23.7,0000.0,0008.41,0003.78,0003.16
2023-07-13 04:51:00,SystemResetWarning,0831.4,5.00,000.00,028.9,026.6,000.0,037.3,030.5,23.9,0000.0,0008.49,0003.77,0003.16
2023-07-13 04:52:00,SystemResetWarning,0831.5,5.00,000.00,028.9,026.9,000.0,037.3,030.6,24.2,0000.0,0008.43,0003.76,0003.16
2023-07-13 04:53:00,SystemResetWarning,0831.5,5.00,000.00,029.0,027.2,000.0,037.4,030.6,24.1,0000.0,0008.80,0003.76,0003.17
2023-07-13 04:54:00,SystemResetWarning,0831.5,5.00,000.00,029.0,027.5,000.0,037.4,030.7,24.3,0000.0,0008.66,0003.72,0003.17
2023-07-13 04:55:00,SystemResetWarning,0831.5,5.00,000.00,029.1,027.7,000.0,037.4,030.7,24.2,0000.0,0008.76,0003.73,0003.17
2023-07-13 04:56:00,SystemResetWarning,0831.6,5.00,000.00,029.1,027.9,000.0,037.5,030.8,24.2,0000.0,0009.11,0003.73,0003.15
2023-07-13 04:57:00,SystemResetWarning,0831.6,5.00,000.00,029.1,028.0,000.0,037.5,030.9,24.1,0000.0,0009.13,0003.72,0003.14
2023-07-13 04:58:00,SystemResetWarning,0831.7,4.98,000.00,029.1,026.7,000.0,037.4,030.7,23.1,0000.0,0009.07,0003.72,0003.12
2023-07-13 04:59:00,SystemResetWarning,0832.3,5.01,000.00,029.0,025.0,000.0,037.3,030.4,22.8,0000.0,0009.06,0003.72,0003.11
